Regional Weather Roundup
Issued by NWS

Home | Current Version | Previous Version | Text Only | Print | Product List | Glossary On
Versions: 1 2 3 4 5 6 7 8 9 10 11 12 13 14 15 16 17 18 19 20 21 22 23 24 25 26 27 28 29
000
ASPQ40 PGUM 191912
RWRPQ
WEATHER ROUNDUP FOR THE MARIANAS AND MICRONESIA
NATIONAL WEATHER SERVICE TIYAN GU
500 AM CHST MON FEB 20 2017

GUZ001>004-192000-
MARIANA ISLANDS-

CITY           SKY/WX    TMP DP  RH WIND       PRES   REMARKS
GUAM AIRPORT   CLEAR     75  72  88 NE10      29.93S
ANDERSEN AFB   PTCLDY    77  68  73 NE16G23   29.94S
ROTA AIRPORT   NOT AVBL
TINIAN AP      NOT AVBL
SAIPAN AP      PTCLDY    75  66  73 NE12      29.94F

$$

PMZ161-192000-
REPUBLIC OF PALAU-

CITY           SKY/WX    TMP DP  RH WIND       PRES   REMARKS
KOROR AP       MOCLDY    81  77  89 E9G16     29.80S
KOROR WSO      CLOUDY    81  75  83 E6        29.81F

$$

PMZ171>174-192000-
FEDERATED STATES OF MICRONESIA-

CITY           SKY/WX    TMP DP  RH WIND       PRES   REMARKS
YAP AIRPORT    CLOUDY    79  75  89 VRB6      29.82R
CHUUK AP       CLOUDY    82  82 100 VRB6      29.80R HX  97
POHNPEI AP     NOT AVBL
POHNPEI WSO    CLOUDY    82  75  78 E6        29.86R
KOSRAE AP      NOT AVBL

$$

PMZ181-192000-
REPUBLIC OF THE MARSHALL ISLANDS-

CITY           SKY/WX    TMP DP  RH WIND       PRES   REMARKS
KWAJALEIN AP   CLEAR     81  72  74 E21       29.88S
MAJURO AP      NOT AVBL
MAJURO WSO     MOCLDY    82  73  74 NE15      29.84R

$$





USA.gov is the U.S. government's official web portal to all federal, state and local government web resources and services.